GW7046 Weather Reports


Display with metric or nautical units.
time (UTC)temp
F
wind
direction
speed
MPH
gust
MPH
rain 1hr
in
rain 24hr
in
rain mn
in
humidity
%
barometer
mb
20260505022639 40 0 0.0 3.0 0.00 0.01 0.01 85 1004.0
20260505022138 41 0 0.0 3.0 0.00 0.01 0.01 85 1003.8
20260505021632 41 0 0.0 3.0 0.00 0.01 0.01 85 1003.7
20260505021125 41 0 0.0 2.0 0.00 0.01 0.01 85 1003.9
20260505015935 41 0 0.0 3.0 0.00 0.01 0.01 84 1003.6
20260505014827 41 0 0.0 3.0 0.00 0.01 0.01 83 1003.3
20260505014336 42 0 0.0 3.0 0.00 0.01 0.01 83 1003.1
20260505013817 42 0 0.0 0.0 0.00 0.01 0.01 83 1003.4
20260505013324 42 0 0.0 1.0 0.00 0.01 0.01 83 1003.1
20260505012202 42 0 0.0 3.0 0.00 0.01 0.01 83 1003.2
20260505011708 43 0 0.0 3.0 0.00 0.01 0.01 83 1003.5
20260505011158 43 0 0.0 3.0 0.00 0.01 0.01 84 1003.4
20260505010655 43 0 0.0 3.0 0.00 0.01 0.01 84 1003.2
20260505010140 43 0 0.0 3.0 0.00 0.01 0.01 85 1003.4
20260505005639 43 0 0.0 0.0 0.00 0.01 0.01 85 1003.0
20260505005147 43 0 0.0 0.0 0.00 0.01 0.01 85 1003.0
20260505004637 42 0 0.0 2.0 0.00 0.01 0.01 85 1002.7
20260505004132 42 0 0.0 0.0 0.00 0.01 0.01 84 1002.9
20260505003619 42 0 0.0 2.0 0.00 0.01 0.01 83 1003.1
20260505003128 43 0 0.0 1.0 0.00 0.01 0.01 82 1003.2
20260505001958 43 0 1.0 5.0 0.00 0.00 0.00 79 1003.8
20260505001500 43 0 0.0 5.0 0.00 0.00 0.00 77 1004.1
20260505000401 44 0 1.0 3.0 0.00 0.00 0.00 72 1004.0
20260504235848 45 0 1.0 5.0 0.00 0.00 0.00 71 1003.9
20260504235343 45 0 2.0 5.0 0.00 0.00 0.00 69 1003.6
20260504234825 45 0 1.0 5.0 0.00 0.00 0.00 67 1003.4
20260504234310 45 0 1.0 5.0 0.00 0.00 0.00 67 1003.3
20260504233754 45 0 2.0 12.0 0.00 0.00 0.00 65 1002.9
20260504233235 45 0 2.0 12.0 0.00 0.00 0.00 66 1002.9
20260504232740 45 0 2.0 12.0 0.00 0.00 0.00 66 1002.5
20260504231618 46 0 2.0 9.0 0.00 0.00 0.00 65 1002.0
20260504231124 46 0 2.0 11.0 0.00 0.00 0.00 64 1002.0
20260504230616 46 0 2.0 11.0 0.00 0.00 0.00 61 1002.2
20260504225502 48 0 3.0 11.0 0.00 0.00 0.00 57 1001.8
20260504224948 49 0 3.0 14.0 0.00 0.00 0.00 54 1001.8
20260504223217 53 0 2.0 14.0 0.00 0.00 0.00 42 1001.5
20260504222721 54 0 2.0 8.0 0.00 0.00 0.00 41 1001.3
20260504222217 54 0 2.0 7.0 0.00 0.00 0.00 42 1001.2
20260504221702 54 0 2.0 7.0 0.00 0.00 0.00 44 1001.4
20260504221142 54 0 2.0 4.0 0.00 0.00 0.00 43 1001.5
20260504220648 54 0 2.0 0.0 0.00 0.00 0.00 43 1001.3
20260504220158 54 0 2.0 11.0 0.00 0.00 0.00 43 1001.3
20260504215010 56 0 2.0 9.0 0.00 0.00 0.00 41 1001.2
20260504213845 56 0 1.0 7.0 0.00 0.00 0.00 40 1001.3
20260504213349 56 0 1.0 5.0 0.00 0.00 0.00 39 1001.4
20260504212838 56 0 1.0 5.0 0.00 0.00 0.00 39 1001.4
20260504211648 56 0 1.0 8.0 0.00 0.00 0.00 40 1001.4
20260504210528 55 0 2.0 8.0 0.00 0.00 0.00 41 1001.6
20260504210013 55 0 2.0 8.0 0.00 0.00 0.00 43 1001.7
20260504205454 55 0 2.0 7.0 0.00 0.00 0.00 43 1002.1
20260504204943 54 0 2.0 7.0 0.00 0.00 0.00 44 1001.9
20260504204427 53 0 2.0 9.0 0.00 0.00 0.00 47 1002.0
20260504203917 52 0 2.0 9.0 0.00 0.00 0.00 48 1002.2
20260504202747 52 0 3.0 9.0 0.00 0.00 0.00 49 1002.3
20260504201015 52 0 4.0 10.0 0.00 0.00 0.00 47 1002.5
20260504195900 53 0 2.0 5.0 0.00 0.00 0.00 44 1002.4
20260504194752 53 0 2.0 9.0 0.00 0.00 0.00 43 1002.5
20260504193618 54 0 2.0 10.0 0.00 0.00 0.00 43 1002.3
20260504192500 54 0 2.0 10.0 0.00 0.00 0.00 44 1002.6
20260504190653 55 0 2.0 9.0 0.00 0.00 0.00 39 1002.5
20260504190138 56 0 3.0 9.0 0.00 0.00 0.00 38 1002.4
20260504185623 57 0 2.0 9.0 0.00 0.00 0.00 35 1002.1
20260504185127 56 0 2.0 7.0 0.00 0.00 0.00 34 1002.0
20260504184610 56 0 2.0 7.0 0.00 0.00 0.00 32 1001.9
20260504184120 56 0 2.0 9.0 0.00 0.00 0.00 33 1002.0
20260504183625 55 0 3.0 9.0 0.00 0.00 0.00 33 1002.0
20260504182500 54 0 2.0 12.0 0.00 0.00 0.00 37 1002.7
20260504182005 53 0 2.0 12.0 0.00 0.00 0.00 37 1002.7
20260504181504 53 0 1.0 12.0 0.00 0.00 0.00 36 1002.7
20260504181006 54 0 2.0 10.0 0.00 0.00 0.00 36 1003.0
20260504180514 55 0 2.0 10.0 0.00 0.00 0.00 33 1003.1
20260504180017 56 0 2.0 10.0 0.00 0.00 0.00 32 1003.0
20260504174855 57 0 1.0 8.0 0.00 0.00 0.00 29 1003.1
20260504174345 58 0 1.0 8.0 0.00 0.00 0.00 30 1002.9
20260504173833 58 0 2.0 8.0 0.00 0.00 0.00 29 1003.0
20260504173325 59 0 3.0 13.0 0.00 0.00 0.00 28 1003.0
20260504172821 59 0 2.0 13.0 0.00 0.00 0.00 29 1003.0
20260504172310 59 0 1.0 13.0 0.00 0.00 0.00 31 1003.0
20260504171150 58 0 2.0 7.0 0.00 0.00 0.00 30 1003.3
20260504170644 59 0 3.0 7.0 0.00 0.00 0.00 29 1003.4
20260504170130 59 0 2.0 11.0 0.00 0.00 0.00 30 1003.4
20260504150808 51 0 2.0 9.0 0.00 0.00 0.00 40 1005.0
20260504150312 51 0 2.0 9.0 0.00 0.00 0.00 40 1005.0
20260504141003 48 0 2.0 5.0 0.00 0.00 0.00 38 1005.1
20260504140447 47 0 1.0 5.0 0.00 0.00 0.00 39 1005.1
20260504130708 46 0 0.0 3.0 0.00 0.00 0.00 39 1004.8
20260504130203 46 0 1.0 3.0 0.00 0.00 0.00 40 1004.6
20260504110314 43 0 0.0 0.0 0.00 0.00 0.00 44 1005.3
20260504081744 45 0 1.0 3.0 0.00 0.00 0.00 41 1006.2
20260504081252 45 0 1.0 3.0 0.00 0.00 0.00 41 1006.2
20260504080732 45 0 1.0 3.0 0.00 0.00 0.00 41 1006.3
20260504080218 45 0 1.0 3.0 0.00 0.00 0.00 41 1006.4
20260504070311 45 0 1.0 3.0 0.00 0.00 0.00 42 1006.8
20260504050701 45 0 0.0 1.0 0.00 0.00 0.00 47 1007.6
20260504050142 45 0 0.0 0.0 0.00 0.00 0.00 47 1007.6
20260504044958 45 0 0.0 1.0 0.00 0.00 0.00 49 1007.7
20260504044458 45 0 0.0 1.0 0.00 0.00 0.00 48 1007.8
20260504043941 45 0 0.0 1.0 0.00 0.00 0.00 48 1007.9
20260504043423 45 0 0.0 1.0 0.00 0.00 0.00 48 1008.0
20260504042908 45 0 0.0 1.0 0.00 0.00 0.00 47 1008.0
20260504042400 45 0 0.0 1.0 0.00 0.00 0.00 48 1008.1
20260504041847 45 0 0.0 1.0 0.00 0.00 0.00 48 1008.1
20260504041332 45 0 0.0 1.0 0.00 0.00 0.00 47 1008.1
20260504040826 45 0 0.0 1.0 0.00 0.00 0.00 49 1008.1
20260504035706 45 0 0.0 1.0 0.00 0.00 0.00 49 1008.1
20260504035209 45 0 0.0 0.0 0.00 0.00 0.00 49 1008.2
20260504034701 45 0 0.0 0.0 0.00 0.00 0.00 49 1008.2
20260504033532 45 0 0.0 1.0 0.00 0.00 0.00 49 1008.2
20260504033034 46 0 0.0 0.0 0.00 0.00 0.00 47 1008.1
20260504031859 46 0 0.0 0.0 0.00 0.00 0.00 46 1008.2
20260504031400 46 0 0.0 0.0 0.00 0.00 0.00 46 1008.1
20260504030858 47 0 0.0 1.0 0.00 0.00 0.00 46 1008.1
20260504030401 47 0 0.0 0.0 0.00 0.00 0.00 45 1008.1
20260504025906 47 0 0.0 0.0 0.00 0.00 0.00 44 1008.0
20260504025354 47 0 0.0 0.0 0.00 0.00 0.00 44 1008.1
20260504024209 48 0 0.0 0.0 0.00 0.00 0.00 42 1008.0
20260504023653 48 0 0.0 0.0 0.00 0.00 0.00 42 1008.0
20260504023149 49 0 0.0 0.0 0.00 0.00 0.00 42 1008.1